New Philadelphia, OH

5:34 AM EST on February 25, 2017 (GMT -0500)
Clever

Weather History for KPHD - October, 2011

Change the Weather History Date:

Wednesday, October 19, 2011

  Actual Average Record
Temperature  
Mean Temperature 52 °F 52 °F  
Max Temperature 60 °F 63 °F 79 °F (1963)
Min Temperature 46 °F 40 °F 25 °F (2015)
Degree Days  
Heating Degree Days 12 14  
Month to date heating degree days 207  
Since 1 July heating degree days 313  
Cooling Degree Days 0 0  
Month to date cooling degree days 9  
Year to date cooling degree days 697  
Growing Degree Days 2 (Base 50)    
Moisture  
Dew Point 50 °F    
Average Humidity 89    
Maximum Humidity 94    
Minimum Humidity 80    
Precipitation  
Precipitation 1.76 in 0.09 in 1.76 in (2011)
Month to date precipitation 1.69  
Year to date precipitation 31.90  
Sea Level Pressure  
Sea Level Pressure 29.36 in    
Wind  
Wind Speed 4 mph (SE)    
Max Wind Speed 14 mph    
Max Gust Speed 25 mph    
Visibility 5 miles    
Events Rain , Thunderstorm    
T = Trace of Precipitation, MM = Missing Value Source: NWS Daily Summary

Daily Weather History Graph

Daily Weather History Graph

Search for Another Location

Airport or City:

Trip Planner

Search our weather history database for the weather conditions in past years. The results will help you decide how hot, cold, wet, or windy it might be!

Date:

Astronomy

Oct. 19, 2011 Rise Set
Actual Time 7:40 AM EDT 6:40 PM EDT
Civil Twilight 7:12 AM EDT 7:07 PM EDT
Nautical Twilight 6:41 AM EDT 7:39 PM EDT
Astronomical Twilight 6:09 AM EDT 8:10 PM EDT
Moon No Moon Rise 2:11 PM EDT (10/19)
Length of Visible Light 11h 54m
Length of Day
10h 59m
Waning Gibbous, 55% of the Moon is Illuminated
Oct 19
Waning Gibbous
Oct 19
Last Quarter
Oct 26
New
Nov 2
First Quarter
Nov 10
Full

Hourly Weather History & Observations

Time (EDT) Temp. Windchill Dew Point Humidity Pressure Visibility Wind Dir Wind Speed Gust Speed Precip Events Conditions
12:53 AM 48.0 °F - 43.0 °F 83% 29.73 in 7.0 mi Calm Calm - 0.02 in Rain , Thunderstorm Light Rain
1:33 AM 46.4 °F 42.4 °F 42.8 °F 87% 29.67 in 4.0 mi NNE 8.1 mph - 0.10 in Rain Light Rain
1:53 AM 46.9 °F - 43.0 °F 86% 29.66 in 3.0 mi Variable 6.9 mph - 0.18 in Rain Heavy Rain
2:53 AM 48.0 °F - 44.1 °F 86% 29.61 in 10.0 mi ENE 9.2 mph - 0.01 in Rain Light Rain
3:53 AM 48.9 °F - 44.1 °F 83% 29.59 in 10.0 mi Calm Calm - 0.00 in Rain Light Rain
4:53 AM 48.9 °F - 45.0 °F 86% 29.57 in 10.0 mi East 6.9 mph - 0.01 in   Overcast
5:53 AM 50.0 °F - 44.1 °F 80% 29.57 in 10.0 mi Calm Calm - N/A   Overcast
6:53 AM 50.0 °F - 44.1 °F 80% 29.56 in 7.0 mi Calm Calm - 0.01 in Rain Light Rain
7:53 AM 50.0 °F - 45.0 °F 83% 29.56 in 10.0 mi Calm Calm - 0.00 in   Overcast
8:53 AM 50.0 °F - 46.0 °F 86% 29.55 in 9.0 mi Calm Calm - 0.02 in Rain Light Rain
9:53 AM 50.0 °F - 46.0 °F 86% 29.53 in 7.0 mi Calm Calm - 0.01 in Rain Light Rain
10:53 AM 52.0 °F - 48.0 °F 86% 29.50 in 4.0 mi Calm Calm - 0.05 in Rain Light Rain
12:53 PM 55.0 °F - 51.1 °F 86% 29.44 in 8.0 mi NNW 5.8 mph - 0.00 in   Overcast
1:21 PM 55.4 °F - 51.8 °F 88% 29.42 in 1.8 mi NNW 4.6 mph - 0.04 in Rain Heavy Rain
1:53 PM 54.0 °F - 52.0 °F 93% 29.40 in 1.0 mi Calm Calm - 0.15 in Rain Heavy Rain
2:02 PM 53.6 °F - 51.8 °F 94% 29.40 in 0.8 mi Calm Calm - 0.07 in Rain Heavy Rain
2:30 PM 53.6 °F - 51.8 °F 94% 29.38 in 0.8 mi Calm Calm - 0.26 in Rain Heavy Rain
2:37 PM 53.6 °F - 51.8 °F 94% 29.37 in 1.0 mi Calm Calm - 0.29 in Rain Heavy Rain
2:44 PM 55.4 °F - 53.6 °F 94% 29.36 in 1.2 mi Calm Calm - 0.33 in Rain Heavy Rain
2:53 PM 55.0 °F - 53.1 °F 93% 29.36 in 1.2 mi Calm Calm - 0.37 in Rain Heavy Rain
3:00 PM 55.4 °F - 53.6 °F 94% 29.35 in 1.0 mi Calm Calm - 0.05 in Rain Heavy Rain
3:15 PM 55.4 °F - 53.6 °F 94% 29.34 in 1.2 mi NE 3.5 mph - 0.12 in Rain Heavy Rain
3:24 PM 55.4 °F - 53.6 °F 94% 29.33 in 1.0 mi NE 3.5 mph - 0.18 in Rain Heavy Rain
3:33 PM 55.4 °F - 53.6 °F 94% 29.32 in 1.5 mi NE 3.5 mph - 0.22 in Rain Rain
3:53 PM 55.9 °F - 54.0 °F 93% 29.30 in 2.0 mi ENE 6.9 mph - 0.33 in Rain Heavy Rain
4:00 PM 57.2 °F - 53.6 °F 88% 29.29 in 1.5 mi Variable 5.8 mph - 0.06 in Rain Heavy Rain
4:15 PM 57.2 °F - 53.6 °F 88% 29.27 in 2.0 mi NE 5.8 mph - 0.12 in Rain Rain
4:27 PM 57.2 °F - 53.6 °F 88% 29.25 in 3.0 mi ENE 9.2 mph - 0.14 in Rain Light Rain
4:46 PM 57.2 °F - 53.6 °F 88% 29.25 in 6.0 mi ENE 5.8 mph - 0.16 in Rain Light Rain
4:53 PM 57.9 °F - 55.0 °F 90% 29.24 in 7.0 mi ENE 8.1 mph - 0.16 in Rain Light Rain
5:53 PM 57.9 °F - 54.0 °F 87% 29.18 in 10.0 mi ENE 9.2 mph 18.4 mph 0.02 in   Overcast
6:53 PM 59.0 °F - 55.0 °F 87% 29.13 in 10.0 mi East 5.8 mph 16.1 mph 0.00 in   Overcast
7:26 PM 59.0 °F - 55.4 °F 88% 29.18 in 6.0 mi SSW 10.4 mph - 0.03 in Rain Light Rain
7:33 PM 57.2 °F - 55.4 °F 94% 29.17 in 1.8 mi South 6.9 mph - 0.10 in Rain Heavy Rain
7:37 PM 57.2 °F - 55.4 °F 94% 29.17 in 2.0 mi SSE 8.1 mph - 0.12 in Rain Heavy Rain
7:41 PM 59.0 °F - 55.4 °F 88% 29.17 in 3.0 mi South 6.9 mph - 0.14 in Rain Rain
7:51 PM 59.0 °F - 55.4 °F 88% 29.17 in 4.0 mi SSW 9.2 mph 16.1 mph 0.16 in Rain Light Rain
7:53 PM 59.0 °F - 55.9 °F 90% 29.17 in 6.0 mi Variable 5.8 mph 16.1 mph 0.16 in Rain Light Rain
8:00 PM 57.2 °F - 55.4 °F 94% 29.18 in 10.0 mi WSW 9.2 mph 16.1 mph 0.00 in Rain Light Rain
8:53 PM 54.0 °F - 50.0 °F 86% 29.22 in 10.0 mi WSW 8.1 mph 25.3 mph 0.02 in   Overcast
9:41 PM 53.6 °F - 48.2 °F 82% 29.27 in 3.0 mi WSW 10.4 mph 21.9 mph 0.06 in Rain Heavy Rain
9:53 PM 52.0 °F - 48.0 °F 86% 29.30 in 3.0 mi SW 6.9 mph 23.0 mph 0.16 in Rain Heavy Rain
10:00 PM 51.8 °F - 48.2 °F 88% 29.31 in 4.0 mi SSW 8.1 mph 19.6 mph 0.02 in Rain Rain
10:48 PM 51.8 °F - 48.2 °F 88% 29.27 in 10.0 mi SSW 8.1 mph - 0.08 in   Overcast
10:53 PM 51.1 °F - 48.0 °F 89% 29.28 in 10.0 mi South 6.9 mph - 0.08 in   Overcast
11:06 PM 51.8 °F - 48.2 °F 88% 29.26 in 10.0 mi SSW 5.8 mph - N/A   Overcast
11:33 PM 51.8 °F - 48.2 °F 88% 29.28 in 9.0 mi SSW 13.8 mph 23.0 mph N/A   Overcast
11:53 PM 48.9 °F - 46.0 °F 90% 29.27 in 7.0 mi SW 9.2 mph - 0.00 in   Overcast